Simultaneous Nadir Overpasses (SNOs) Predictions

Prediction of SNOs between NOAA-20 and TERRA Satellite Orbit:

Table of predicted SNOs for the next 14.0 days since TLE Epoch: 9/28/2024
Index Date (NOAA-20) Time (NOAA-20) Lat,Lon (NOAA-20) SZA (NOAA-20 ) Date (TERRA) Time (TERRA) Lat,Lon (TERRA) SZA (TERRA ) Distance(km) Time Diff (sec)
1 09/30/2024 02:17:52 72.65, 137.29 75.59 09/30/2024 02:18:08 72.64, 137.30 75.58 0.95 16
2 09/30/2024 03:08:34 -72.54, -55.19 104.51 09/30/2024 03:07:32 -72.57, -55.18 104.48 2.64 62
3 10/02/2024 13:30:22 72.67, -30.88 76.56 10/02/2024 13:30:51 72.69, -30.84 76.57 2.75 29
4 10/02/2024 14:21:04 -72.56, 136.65 103.54 10/02/2024 14:20:16 -72.57, 136.59 103.54 1.93 48
5 10/05/2024 00:42:51 72.70, 160.93 77.54 10/05/2024 00:43:33 72.68, 160.93 77.51 2.34 42
6 10/05/2024 01:33:33 -72.60, -31.55 102.56 10/05/2024 01:32:57 -72.61, -31.54 102.54 1.97 36
7 10/07/2024 11:55:20 72.70, -7.19 78.47 10/07/2024 11:56:14 72.72, -7.21 78.49 2.49 54
8 10/07/2024 12:46:03 -72.64, 160.23 101.57 10/07/2024 12:45:38 -72.66, 160.33 101.56 3.50 25
9 10/09/2024 23:07:50 72.76,-175.45 79.47 10/09/2024 23:08:54 72.76,-175.35 79.46 3.32 64
10 10/09/2024 23:58:32 -72.66, -7.92 100.63 10/09/2024 23:58:19 -72.64, -7.91 100.64 2.01 13



Historial Predications of SNOs between NOAA-20 and TERRA
